User: anonymous   Login
Location: Unspecified
(0.0000°N, 0.0000°E)
Time: 02:10:58
(UTC+00:00)
Language:

STARLINK-11131 [DTC] - Orbit

View from above orbital plane
View from above orbital plane
View from above satellite
View from above satellite

Ground track
Ground track

The orbit is defined by the following mean orbital elements,

1 59756U          26145.49078059 +.00000000 +00000-0 -12143-4 0 00001
2 59756  53.1582 187.8265 0001102  87.3107 272.8037 15.69717607    03
Epoch (UTC): 25 May 2026 11:46:43
Eccentricity: 0.0001102
inclination: 53.1582°
perigee height: 359 km
apogee height: 360 km
right ascension of ascending node: 187.8265°
argument of perigee: 87.3107°
revolutions per day: 15.69717607
mean anomaly at epoch: 272.8037°

The dashed part of the orbit path shows where the satellite is in the earth's shadow,  

DLR